Flag for U.S.A. Weather past 2 weeks in Wailuku, Hawaii, U.S.A.

Now
74 °F

Clear.


Feels Like: 72 °F
Forecast: 72 / 86 °F
Wind: 6 mph from Northeast

Location: Kahului Airport

Current Time: Oct 24, 2014 at 1:43:57 AM

Latest Report: Oct 24, 2014 at 12:54 AM


Visibility: 10 mi

Pressure: 30.03 "Hg

Humidity: 91%

Dew point: 71 °F

Location of WailukuLocation

Historic Weather in Wailuku — Graph

°F

Wailuku temperature yesterday

Maximum temperature yesterday: 86 °F (at 11:54 AM)
Minimum temperature yesterday: 69 °F (at 6:54 AM)
Average temperature yesterday: 78 °F

Past Weeks' High & Low Weather Summary

 TemperatureHumidityPressure
High90 °F (Oct 9, 12:54 PM)94% (Oct 19, 1:24 AM)30.08 "Hg (Oct 19, 1:24 AM)
Low69 °F (Oct 14, 3:54 AM)45% (Oct 9, 9:54 AM)29.85 "Hg (Oct 17, 2:54 PM)
Average79 °F72%29.98 "Hg
* Reported Oct 9 12:54 AM — Oct 24 12:54 AM, Wailuku, Weather by CustomWeather, © 2014

Note: Actual official high and low records may vary slightly from our data, if they occured in-between our weather recording intervals... More about our weather records

Advertising

Wailuku weather history for previous 24 hours

 ConditionsComfort  
Time TempWeatherWind HumidityBarometerVisibility
12:54 AM
Oct 24
74 °FClear.6 mph91%30.03 "Hg10 mi
11:54 PM
Oct 23
75 °FPartly cloudy.6 mph90%30.05 "Hg10 mi
10:54 PM75 °FLight rain. Fog.8 mph88%30.07 "Hg5 mi
9:54 PM76 °FPassing clouds.8 mph82%30.07 "Hg10 mi
8:54 PM76 °FPassing clouds.6 mph82%30.08 "Hg10 mi
7:54 PM77 °FPassing clouds.12 mph82%30.07 "Hg10 mi
6:54 PM77 °FPassing clouds.8 mph82%30.06 "Hg10 mi
5:54 PM79 °FLight rain. Scattered clouds.12 mph72%30.04 "Hg10 mi
4:54 PM82 °FScattered clouds.21 mph65%30.02 "Hg10 mi
3:54 PM84 °FScattered clouds.21 mph61%30.01 "Hg10 mi
2:54 PM86 °FScattered clouds.21 mph59%30.01 "Hg10 mi
1:54 PM86 °FScattered clouds.20 mph59%30.02 "Hg10 mi
12:54 PM86 °FScattered clouds.20 mph59%30.03 "Hg10 mi
11:54 AM86 °FScattered clouds.21 mph59%30.06 "Hg10 mi
10:54 AM85 °FScattered clouds.20 mph61%30.07 "Hg10 mi
9:54 AM84 °FPassing clouds.14 mph61%30.08 "Hg10 mi
8:54 AM82 °FPassing clouds.13 mph67%30.07 "Hg10 mi
7:54 AM77 °FPassing clouds.No wind77%30.06 "Hg10 mi
6:54 AM69 °FPassing clouds.No wind93%30.04 "Hg10 mi
5:54 AM70 °FClear.3 mph90%30.01 "Hg10 mi
4:54 AM71 °FClear.5 mph90%30.00 "Hg10 mi
3:54 AM73 °FClear.No wind88%29.99 "Hg10 mi
2:54 AM74 °FClear.6 mph85%29.99 "Hg10 mi
1:54 AM73 °FClear.3 mph88%30.01 "Hg10 mi
Weather by CustomWeather, © 2014

See weather overviewHow to use our weather pages